SJX37J OMDB-EDDF

Flight info

Callsign SJX37J
Flight time 8h 5m
Altitude 32000
Route ANVIX R401 GIDIS G783 RIGIL M628 PEKEM DCT MEDPO DCT ITRUX Y511 DANOM/N0494F340 Y511 PMA Z712 WEJ L677 CVO L617 TANSA DCT KOR/N0478F360 DCT DIMIS DCT KOFER DCT MINTU DCT ROTAR DCT ROKIB DCT SUXAN DCT ARGAX DCT LADOL T163 EMPAX EMPAX5A
Aircraft A339/H-SADE1E2E3GHIJ3J5M1P2RWXY/LB2D1

Departure

Time 2026-05-04 11:50
Airport Dubai International Airport (OMDB)

Arrival

Time 2026-05-04 19:56
Airport Frankfurt Main Airport (EDDF)
Time Latitude Longitude Altitude Speed Heading
2026-05-04 11:27 25.25870 55.34510 31 ft 0 kts 211°
2026-05-04 11:36 25.25892 55.34525 30 ft 2 kts 216°
2026-05-04 11:37 25.25903 55.34535 28 ft 2 kts 211°
2026-05-04 11:37 25.25916 55.34543 29 ft 2 kts 211°
2026-05-04 11:37 25.25927 55.34552 29 ft 2 kts 195°
2026-05-04 11:37 25.25941 55.34557 31 ft 2 kts 165°
2026-05-04 11:38 25.25956 55.34553 29 ft 2 kts 127°
2026-05-04 11:38 25.25963 55.34541 31 ft 0 kts 121°
2026-05-04 11:40 25.25961 55.34545 31 ft 2 kts 121°
2026-05-04 11:41 25.25947 55.34571 30 ft 6 kts 121°
2026-05-04 11:41 25.25918 55.34622 30 ft 10 kts 122°
2026-05-04 11:41 25.25875 55.34697 30 ft 13 kts 122°
2026-05-04 11:41 25.25844 55.34806 29 ft 17 kts 93°
2026-05-04 11:42 25.25833 55.34948 28 ft 20 kts 105°
2026-05-04 11:42 25.25760 55.35094 28 ft 24 kts 120°
2026-05-04 11:42 25.25668 55.35260 23 ft 27 kts 122°
2026-05-04 11:42 25.25562 55.35447 21 ft 30 kts 121°
2026-05-04 11:43 25.25452 55.35649 18 ft 30 kts 120°
2026-05-04 11:43 25.25347 55.35841 21 ft 29 kts 121°
2026-05-04 11:43 25.25245 55.36024 23 ft 27 kts 122°
2026-05-04 11:43 25.25150 55.36195 29 ft 25 kts 122°
2026-05-04 11:44 25.25062 55.36353 27 ft 23 kts 121°
2026-05-04 11:44 25.24979 55.36502 29 ft 23 kts 121°
2026-05-04 11:44 25.24894 55.36662 31 ft 26 kts 118°
2026-05-04 11:44 25.24839 55.36861 34 ft 28 kts 111°
2026-05-04 11:45 25.24738 55.37056 37 ft 29 kts 123°
2026-05-04 11:45 25.24669 55.37181 39 ft 28 kts 120°
2026-05-04 11:45 25.24569 55.37363 39 ft 27 kts 122°
2026-05-04 11:45 25.24476 55.37531 43 ft 25 kts 121°
2026-05-04 11:46 25.24387 55.37689 46 ft 23 kts 120°
2026-05-04 11:46 25.24352 55.37818 48 ft 14 kts 63°
2026-05-04 11:46 25.24421 55.37888 48 ft 13 kts 38°
2026-05-04 11:46 25.24439 55.37956 52 ft 8 kts 106°
2026-05-04 11:47 25.24415 55.38003 46 ft 7 kts 119°
2026-05-04 11:47 25.24382 55.38064 53 ft 14 kts 121°
2026-05-04 11:47 25.24307 55.38199 53 ft 28 kts 122°
2026-05-04 11:47 25.24191 55.38404 54 ft 41 kts 121°
2026-05-04 11:48 25.24045 55.38674 53 ft 52 kts 122°
2026-05-04 11:48 25.23842 55.39035 60 ft 54 kts 121°
2026-05-04 11:48 25.23668 55.39344 83 ft 26 kts 122°
2026-05-04 11:48 25.23639 55.39375 84 ft 11 kts 142°
2026-05-04 11:49 25.23610 55.39431 84 ft 4 kts 69°
2026-05-04 11:49 25.23633 55.39424 87 ft 4 kts 332°
2026-05-04 11:49 25.23649 55.39378 86 ft 10 kts 292°
2026-05-04 11:49 25.23699 55.39281 73 ft 19 kts 300°
2026-05-04 11:50 25.23828 55.39050 61 ft 69 kts 301°
2026-05-04 11:50 25.24207 55.38363 54 ft 135 kts 302°
2026-05-04 11:50 25.24793 55.37329 110 ft 179 kts 302°
2026-05-04 11:50 25.25419 55.36223 957 ft 163 kts 300°
2026-05-04 11:51 25.25972 55.35116 1626 ft 166 kts 299°
2026-05-04 11:51 25.26566 55.34007 2255 ft 171 kts 304°
2026-05-04 11:51 25.27300 55.32894 2676 ft 188 kts 308°
2026-05-04 11:51 25.28123 55.31710 3064 ft 203 kts 308°
2026-05-04 11:52 25.28958 55.30355 3240 ft 224 kts 297°
2026-05-04 11:52 25.29285 55.28626 3574 ft 239 kts 270°
2026-05-04 11:52 25.29109 55.27364 3860 ft 246 kts 257°
2026-05-04 11:52 25.29026 55.27052 3911 ft 248 kts 255°
2026-05-04 11:53 25.28251 55.25224 4469 ft 248 kts 242°
2026-05-04 11:53 25.27348 55.23605 4980 ft 249 kts 240°
2026-05-04 11:53 25.26462 55.21952 5449 ft 250 kts 243°
2026-05-04 11:53 25.25639 55.20247 5944 ft 251 kts 246°
2026-05-04 11:55 25.15988 55.21263 8274 ft 300 kts 113°
2026-05-04 11:55 25.15156 55.23393 8509 ft 309 kts 110°
2026-05-04 11:56 25.14305 55.25590 8913 ft 312 kts 112°
2026-05-04 11:56 25.13378 55.27767 9326 ft 315 kts 114°
2026-05-04 11:56 25.12382 55.29942 9733 ft 319 kts 116°
2026-05-04 11:56 25.11351 55.32106 10164 ft 319 kts 116°
2026-05-04 11:57 25.10347 55.34284 10578 ft 319 kts 112°
2026-05-04 11:57 25.09421 55.36528 10995 ft 320 kts 112°
2026-05-04 11:57 25.08498 55.38773 11424 ft 321 kts 112°
2026-05-04 11:57 25.07579 55.41001 11565 ft 322 kts 112°
2026-05-04 11:58 25.06648 55.43280 11740 ft 331 kts 112°
2026-05-04 11:58 25.05724 55.45664 11866 ft 344 kts 111°
2026-05-04 11:58 25.04782 55.48142 11993 ft 356 kts 111°
2026-05-04 11:58 25.03820 55.50669 12097 ft 367 kts 111°
2026-05-04 11:59 25.02818 55.53288 12332 ft 375 kts 111°
2026-05-04 11:59 25.01737 55.55916 12716 ft 377 kts 117°
2026-05-04 11:59 25.00397 55.58408 13125 ft 378 kts 120°
2026-05-04 11:59 24.99034 55.60895 13526 ft 380 kts 120°
2026-05-04 12:00 24.97669 55.63408 13879 ft 382 kts 120°
2026-05-04 12:00 24.96302 55.65935 14229 ft 384 kts 120°
2026-05-04 12:00 24.95060 55.68234 14542 ft 386 kts 120°
2026-05-04 12:00 24.93623 55.70748 14857 ft 389 kts 125°
2026-05-04 12:01 24.92009 55.73161 15183 ft 392 kts 126°
2026-05-04 12:01 24.90394 55.75577 15560 ft 393 kts 125°
2026-05-04 12:02 24.80475 55.90288 17608 ft 406 kts 131°
2026-05-04 12:03 24.78324 55.92311 17954 ft 409 kts 148°
2026-05-04 12:03 24.75743 55.93631 18252 ft 411 kts 164°
2026-05-04 12:03 24.72931 55.94137 18576 ft 410 kts 180°
2026-05-04 12:03 24.70084 55.94035 18908 ft 410 kts 186°
2026-05-04 12:04 24.67225 55.93772 19223 ft 412 kts 187°
2026-05-04 12:04 24.64407 55.93547 19589 ft 412 kts 186°
2026-05-04 12:04 24.61569 55.93151 19909 ft 410 kts 197°
2026-05-04 12:04 24.58932 55.92011 20259 ft 406 kts 212°
2026-05-04 12:05 24.56672 55.90192 20621 ft 401 kts 225°
2026-05-04 12:05 24.54591 55.88135 20952 ft 403 kts 225°
2026-05-04 12:05 24.52497 55.86086 21304 ft 404 kts 224°
2026-05-04 12:05 24.51226 55.84852 21509 ft 405 kts 224°
2026-05-04 12:06 24.49894 55.83562 21756 ft 405 kts 224°
2026-05-04 12:06 24.47775 55.81519 22118 ft 406 kts 224°
2026-05-04 12:06 24.45640 55.79467 22456 ft 408 kts 224°
2026-05-04 12:06 24.43502 55.77416 22837 ft 409 kts 223°
2026-05-04 12:07 24.41358 55.75360 23206 ft 410 kts 223°
2026-05-04 12:07 24.39230 55.73319 23504 ft 411 kts 223°
2026-05-04 12:07 24.37076 55.71253 23799 ft 413 kts 223°
2026-05-04 12:07 24.34908 55.69175 24090 ft 414 kts 223°
2026-05-04 12:08 24.32740 55.67098 24399 ft 416 kts 224°
2026-05-04 12:08 24.30549 55.64999 24681 ft 417 kts 224°
2026-05-04 12:08 24.28332 55.62923 24971 ft 419 kts 220°
2026-05-04 12:08 24.25883 55.61161 25249 ft 424 kts 211°
2026-05-04 12:09 24.23184 55.59816 25529 ft 429 kts 203°
2026-05-04 12:09 24.20301 55.58890 25786 ft 433 kts 198°
2026-05-04 12:09 24.17384 55.58053 26063 ft 434 kts 198°
2026-05-04 12:09 24.14456 55.57191 26328 ft 436 kts 199°
2026-05-04 12:10 24.11561 55.56328 26589 ft 437 kts 199°
2026-05-04 12:10 24.08618 55.55446 26849 ft 439 kts 199°
2026-05-04 12:10 24.05666 55.54563 27104 ft 440 kts 199°
2026-05-04 12:10 24.02702 55.53677 27358 ft 442 kts 199°
2026-05-04 12:11 23.99728 55.52789 27612 ft 444 kts 199°
2026-05-04 12:11 23.96742 55.51901 27858 ft 446 kts 199°
2026-05-04 12:11 23.93812 55.51032 28113 ft 447 kts 199°
2026-05-04 12:11 23.90802 55.50139 28348 ft 449 kts 199°
2026-05-04 12:12 23.87778 55.49242 28597 ft 450 kts 199°
2026-05-04 12:12 23.84755 55.48345 28835 ft 452 kts 199°
2026-05-04 12:12 23.81710 55.47442 29065 ft 453 kts 199°
2026-05-04 12:12 23.78658 55.46535 29307 ft 455 kts 199°
2026-05-04 12:13 23.75598 55.45627 29556 ft 456 kts 199°
2026-05-04 12:14 23.53911 55.39202 31077 ft 468 kts 199°
2026-05-04 12:15 23.50760 55.38270 31297 ft 469 kts 199°
2026-05-04 12:15 23.47608 55.37337 31502 ft 470 kts 199°
2026-05-04 12:15 23.44438 55.36400 31712 ft 472 kts 199°
2026-05-04 12:15 23.41264 55.35462 31908 ft 474 kts 199°
2026-05-04 12:16 23.38083 55.34523 32111 ft 475 kts 199°
2026-05-04 12:16 23.34883 55.33578 32291 ft 476 kts 199°
2026-05-04 12:16 23.31724 55.32646 32450 ft 477 kts 199°
2026-05-04 12:16 23.28465 55.31684 32591 ft 479 kts 199°
2026-05-04 12:17 23.25288 55.30749 32718 ft 480 kts 199°
2026-05-04 12:17 23.22065 55.29799 32841 ft 481 kts 199°
2026-05-04 12:17 23.18827 55.28844 32952 ft 482 kts 199°
2026-05-04 12:17 23.15589 55.27891 33066 ft 482 kts 199°
2026-05-04 12:18 23.09373 55.25326 33192 ft 475 kts 214°
2026-05-04 12:18 23.06704 55.23251 33303 ft 470 kts 224°
2026-05-04 12:18 23.04422 55.20725 33408 ft 465 kts 234°
2026-05-04 12:19 23.02593 55.17849 33513 ft 462 kts 243°
2026-05-04 12:19 23.01243 55.14706 33618 ft 459 kts 252°
2026-05-04 12:19 23.00393 55.11375 33724 ft 457 kts 260°
2026-05-04 12:19 22.99766 55.07999 33814 ft 457 kts 259°
2026-05-04 12:20 22.98454 55.01251 34005 ft 456 kts 259°
2026-05-04 12:20 22.97797 54.97933 34109 ft 456 kts 259°
2026-05-04 12:20 22.97129 54.94566 34205 ft 456 kts 259°
2026-05-04 12:21 22.95796 54.87847 34398 ft 455 kts 259°
2026-05-04 12:21 22.94461 54.81124 34579 ft 455 kts 259°
2026-05-04 12:22 22.93127 54.74419 34749 ft 455 kts 259°
2026-05-04 12:22 22.92459 54.71067 34850 ft 454 kts 259°
2026-05-04 12:22 22.91790 54.67716 34929 ft 454 kts 259°
2026-05-04 12:23 22.90450 54.61015 35116 ft 454 kts 259°
2026-05-04 12:23 22.89107 54.54320 35305 ft 454 kts 259°
2026-05-04 12:24 22.87771 54.47671 35484 ft 454 kts 259°
2026-05-04 12:24 22.87099 54.44331 35586 ft 453 kts 259°
2026-05-04 12:24 22.86425 54.40991 35698 ft 453 kts 259°
2026-05-04 12:25 22.85094 54.34396 35735 ft 453 kts 259°
2026-05-04 12:25 22.83745 54.27729 35735 ft 452 kts 259°
2026-05-04 12:26 22.82395 54.21067 35732 ft 452 kts 259°
2026-05-04 12:26 22.81042 54.14407 35734 ft 452 kts 259°
2026-05-04 12:27 22.79693 54.07781 35738 ft 452 kts 259°
2026-05-04 12:27 22.78335 54.01125 35730 ft 451 kts 259°
2026-05-04 12:28 22.77222 53.95595 35733 ft 451 kts 259°
2026-05-04 12:28 22.75727 53.87862 35730 ft 451 kts 259°
2026-05-04 12:29 22.74434 53.81210 35732 ft 451 kts 259°
2026-05-04 12:29 22.73134 53.74564 35725 ft 451 kts 259°
2026-05-04 12:30 22.71829 53.67919 35728 ft 451 kts 259°
2026-05-04 12:30 22.70741 53.62394 35731 ft 451 kts 259°
2026-05-04 12:31 22.69431 53.55748 35731 ft 451 kts 259°
2026-05-04 12:31 22.68117 53.49101 35732 ft 451 kts 259°
2026-05-04 12:32 22.66162 53.39238 35737 ft 451 kts 259°
2026-05-04 12:33 22.64843 53.32598 35732 ft 451 kts 259°
2026-05-04 12:33 22.63520 53.25956 35731 ft 451 kts 259°
2026-05-04 12:34 22.62193 53.19308 35733 ft 451 kts 259°
2026-05-04 12:34 22.60872 53.12703 35734 ft 451 kts 259°
2026-05-04 12:35 22.59539 53.06055 35738 ft 451 kts 259°
2026-05-04 12:35 22.58202 52.99403 35735 ft 451 kts 259°
2026-05-04 12:36 22.56874 52.92808 35740 ft 452 kts 259°
2026-05-04 12:36 22.55533 52.86166 35737 ft 452 kts 259°
2026-05-04 12:37 22.54190 52.79530 35738 ft 452 kts 259°
2026-05-04 12:37 22.52844 52.72887 35744 ft 452 kts 259°
2026-05-04 12:38 22.51495 52.66250 35737 ft 452 kts 258°
2026-05-04 12:38 22.50143 52.59615 35738 ft 452 kts 258°
2026-05-04 12:39 22.48797 52.53018 35743 ft 452 kts 258°
2026-05-04 12:39 22.47440 52.46382 35741 ft 452 kts 258°
2026-05-04 12:40 22.46078 52.39739 35740 ft 452 kts 258°
2026-05-04 12:40 22.44859 52.33808 35733 ft 452 kts 258°
2026-05-04 12:41 22.43495 52.27179 35737 ft 452 kts 258°
2026-05-04 12:41 22.42126 52.20546 35741 ft 452 kts 258°
2026-05-04 12:42 22.41064 52.13909 35738 ft 451 kts 266°
2026-05-04 12:42 22.41075 52.07143 35743 ft 451 kts 275°
2026-05-04 12:43 22.41691 52.00401 35740 ft 451 kts 275°
2026-05-04 12:43 22.42273 51.93648 35738 ft 451 kts 275°
2026-05-04 12:44 22.42854 51.86893 35743 ft 451 kts 275°
2026-05-04 12:44 22.43433 51.80145 35739 ft 451 kts 275°
2026-05-04 12:45 22.44009 51.73385 35740 ft 451 kts 275°
2026-05-04 12:45 22.44581 51.66633 35745 ft 451 kts 275°
2026-05-04 12:46 22.45148 51.59915 35745 ft 451 kts 275°
2026-05-04 12:46 22.45715 51.53154 35740 ft 451 kts 275°
2026-05-04 12:47 22.46279 51.46393 35746 ft 451 kts 275°
2026-05-04 12:47 22.46838 51.39671 35749 ft 451 kts 275°
2026-05-04 12:48 22.47395 51.32934 35741 ft 451 kts 275°
2026-05-04 12:48 22.47951 51.26169 35746 ft 451 kts 275°
2026-05-04 12:49 22.48504 51.19406 35740 ft 451 kts 275°
2026-05-04 12:49 22.49051 51.12688 35745 ft 451 kts 274°
2026-05-04 12:50 22.49598 51.05931 35742 ft 450 kts 274°
2026-05-04 12:50 22.50141 50.99181 35746 ft 450 kts 274°
2026-05-04 12:51 22.50683 50.92427 35746 ft 450 kts 274°
2026-05-04 12:51 22.51221 50.85672 35746 ft 450 kts 274°
2026-05-04 12:52 22.51756 50.78925 35745 ft 450 kts 274°
2026-05-04 12:52 22.52288 50.72171 35743 ft 450 kts 274°
2026-05-04 12:53 22.52817 50.65422 35745 ft 450 kts 274°
2026-05-04 12:53 22.53344 50.58671 35747 ft 450 kts 274°
2026-05-04 12:54 22.53865 50.51950 35745 ft 450 kts 274°
2026-05-04 12:54 22.54387 50.45185 35747 ft 450 kts 274°
2026-05-04 12:55 22.54905 50.38434 35746 ft 450 kts 274°
2026-05-04 12:55 22.55418 50.31717 35741 ft 450 kts 274°
2026-05-04 12:56 22.55931 50.24960 35748 ft 450 kts 274°
2026-05-04 12:56 22.56440 50.18209 35751 ft 450 kts 274°
2026-05-04 12:57 22.56946 50.11462 35748 ft 450 kts 274°
2026-05-04 12:57 22.57451 50.04705 35750 ft 450 kts 274°
2026-05-04 12:58 22.57951 49.97952 35746 ft 450 kts 274°
2026-05-04 12:58 22.58449 49.91202 35743 ft 450 kts 274°
2026-05-04 12:59 22.58945 49.84439 35747 ft 450 kts 274°
2026-05-04 12:59 22.59438 49.77688 35748 ft 450 kts 274°
2026-05-04 13:00 22.59924 49.70972 35741 ft 450 kts 273°
2026-05-04 13:00 22.60411 49.64221 35746 ft 450 kts 273°
2026-05-04 13:01 22.60895 49.57466 35744 ft 450 kts 273°
2026-05-04 13:01 22.61377 49.50705 35741 ft 450 kts 273°
2026-05-04 13:02 22.61855 49.43954 35747 ft 450 kts 273°
2026-05-04 13:02 22.62328 49.37229 35743 ft 450 kts 273°
2026-05-04 13:03 22.62801 49.30475 35745 ft 450 kts 273°
2026-05-04 13:03 22.63267 49.23761 35746 ft 450 kts 273°
2026-05-04 13:04 22.63735 49.17004 35744 ft 450 kts 273°
2026-05-04 13:04 22.64199 49.10241 35748 ft 450 kts 273°
2026-05-04 13:05 22.64660 49.03488 35746 ft 450 kts 273°
2026-05-04 13:05 22.65118 48.96731 35753 ft 449 kts 273°
2026-05-04 13:06 22.65571 48.90020 35754 ft 450 kts 272°
2026-05-04 13:06 22.66024 48.83264 35752 ft 449 kts 272°
2026-05-04 13:07 22.66473 48.76511 35753 ft 449 kts 272°
2026-05-04 13:07 22.66920 48.69764 35757 ft 449 kts 272°
2026-05-04 13:08 22.67364 48.63010 35755 ft 449 kts 272°
2026-05-04 13:08 22.67805 48.56252 35753 ft 449 kts 272°
2026-05-04 13:09 22.68243 48.49505 35756 ft 449 kts 272°
2026-05-04 13:09 22.68675 48.42788 35754 ft 449 kts 272°
2026-05-04 13:10 22.69074 48.36572 35753 ft 449 kts 272°
2026-05-04 13:10 22.69504 48.29818 35753 ft 449 kts 272°
2026-05-04 13:11 22.70168 48.19303 35758 ft 449 kts 272°
2026-05-04 13:11 22.71848 47.92236 35784 ft 449 kts 272°
2026-05-04 13:12 22.73166 47.70428 35756 ft 450 kts 272°
2026-05-04 13:12 22.73568 47.63660 35767 ft 450 kts 272°
2026-05-04 13:13 22.73965 47.56927 35772 ft 451 kts 272°
2026-05-04 13:13 22.74362 47.50149 35784 ft 451 kts 272°
2026-05-04 13:14 22.74758 47.43357 35786 ft 451 kts 272°
2026-05-04 13:14 22.75084 47.37720 35793 ft 451 kts 272°
2026-05-04 13:15 22.75475 47.30942 35797 ft 451 kts 272°
2026-05-04 13:15 22.75864 47.24162 35800 ft 451 kts 272°
2026-05-04 13:16 22.76251 47.17380 35803 ft 450 kts 271°
2026-05-04 13:16 22.76752 47.10611 35810 ft 451 kts 273°
2026-05-04 13:17 22.77314 47.03884 35810 ft 450 kts 273°
2026-05-04 13:17 22.77857 46.97116 35817 ft 450 kts 273°
2026-05-04 13:18 22.78389 46.90333 35824 ft 450 kts 273°
2026-05-04 13:18 22.78912 46.83617 35826 ft 450 kts 273°
2026-05-04 13:19 22.79435 46.76867 35833 ft 449 kts 273°
2026-05-04 13:19 22.79956 46.70114 35837 ft 449 kts 273°
2026-05-04 13:20 22.80473 46.63372 35839 ft 449 kts 273°
2026-05-04 13:20 22.80988 46.56627 35843 ft 449 kts 272°
2026-05-04 13:21 22.81499 46.49892 35850 ft 448 kts 272°
2026-05-04 13:21 22.82007 46.43147 35850 ft 448 kts 272°
2026-05-04 13:22 22.82512 46.36413 35852 ft 448 kts 272°
2026-05-04 13:22 22.83006 46.29726 35849 ft 448 kts 272°
2026-05-04 13:23 22.83505 46.22961 35853 ft 448 kts 272°
2026-05-04 13:23 22.83995 46.16279 35855 ft 447 kts 272°
2026-05-04 13:24 22.84485 46.09549 35847 ft 447 kts 272°
2026-05-04 13:24 22.84973 46.02825 35851 ft 447 kts 272°
2026-05-04 13:25 22.85688 45.92886 35838 ft 446 kts 272°
2026-05-04 13:25 22.86171 45.86135 35843 ft 446 kts 272°
2026-05-04 13:26 22.86646 45.79438 35839 ft 445 kts 272°
2026-05-04 13:26 22.87119 45.72738 35830 ft 445 kts 272°
2026-05-04 13:27 22.87589 45.66041 35833 ft 445 kts 272°
2026-05-04 13:27 22.88054 45.59361 35844 ft 444 kts 272°
2026-05-04 13:28 22.88518 45.52677 35839 ft 444 kts 272°
2026-05-04 13:28 22.88977 45.46017 35848 ft 444 kts 272°
2026-05-04 13:29 22.89433 45.39345 35836 ft 443 kts 272°
2026-05-04 13:29 22.89887 45.32671 35839 ft 443 kts 272°
2026-05-04 13:30 22.90335 45.26046 35848 ft 443 kts 272°
2026-05-04 13:30 22.90783 45.19386 35843 ft 442 kts 272°
2026-05-04 13:31 22.91227 45.12735 35842 ft 442 kts 272°
2026-05-04 13:31 22.91670 45.06082 35854 ft 441 kts 272°
2026-05-04 13:32 22.92106 44.99438 35842 ft 441 kts 272°
2026-05-04 13:32 22.92540 44.92799 35854 ft 441 kts 272°
2026-05-04 13:33 22.92969 44.86186 35849 ft 440 kts 271°
2026-05-04 13:33 22.93395 44.79597 35850 ft 440 kts 272°
2026-05-04 13:34 22.93820 44.72964 35845 ft 440 kts 271°
2026-05-04 13:34 22.94611 44.66387 35847 ft 442 kts 279°
2026-05-04 13:35 22.97378 44.56793 35855 ft 444 kts 285°
2026-05-04 13:36 22.99324 44.50487 35850 ft 444 kts 285°
2026-05-04 13:36 23.01277 44.44136 35855 ft 443 kts 285°
2026-05-04 13:37 23.03230 44.37785 35854 ft 443 kts 285°
2026-05-04 13:37 23.05181 44.31436 35853 ft 443 kts 284°
2026-05-04 13:38 23.07130 44.25083 35856 ft 443 kts 284°
2026-05-04 13:38 23.09065 44.18762 35861 ft 442 kts 284°
2026-05-04 13:39 23.11003 44.12424 35871 ft 442 kts 284°
2026-05-04 13:39 23.12942 44.06068 35872 ft 442 kts 284°
2026-05-04 13:40 23.14874 43.99730 35876 ft 441 kts 284°
2026-05-04 13:40 23.16799 43.93403 35882 ft 441 kts 284°
2026-05-04 13:41 23.18715 43.87096 35891 ft 440 kts 284°
2026-05-04 13:41 23.20633 43.80772 35892 ft 440 kts 284°
2026-05-04 13:42 23.23495 43.71315 35907 ft 440 kts 284°
2026-05-04 13:42 23.25405 43.64993 35908 ft 440 kts 284°
2026-05-04 13:43 23.27314 43.58663 35919 ft 440 kts 284°
2026-05-04 13:43 23.29218 43.52341 35924 ft 439 kts 284°
2026-05-04 13:44 23.31120 43.46014 35932 ft 439 kts 284°
2026-05-04 13:44 23.32988 43.39791 35942 ft 439 kts 284°
2026-05-04 13:45 23.34867 43.33518 35944 ft 438 kts 284°
2026-05-04 13:45 23.36754 43.27213 35950 ft 438 kts 284°
2026-05-04 13:46 23.38636 43.20911 35952 ft 438 kts 283°
2026-05-04 13:46 23.40515 43.14608 35960 ft 437 kts 283°
2026-05-04 13:47 23.42389 43.08306 35971 ft 437 kts 283°
2026-05-04 13:47 23.44258 43.01999 35978 ft 438 kts 283°
2026-05-04 13:48 23.46125 42.95694 35982 ft 438 kts 283°
2026-05-04 13:48 23.47991 42.89382 35985 ft 437 kts 283°
2026-05-04 13:49 23.49854 42.83067 35986 ft 437 kts 283°
2026-05-04 13:49 23.51703 42.76794 35990 ft 437 kts 283°
2026-05-04 13:50 23.53559 42.70491 35990 ft 437 kts 283°
2026-05-04 13:50 23.55417 42.64183 35986 ft 436 kts 283°
2026-05-04 13:51 23.57269 42.57884 35985 ft 436 kts 283°
2026-05-04 13:51 23.59118 42.51579 35983 ft 435 kts 283°
2026-05-04 13:52 23.61873 42.42171 35983 ft 435 kts 283°
2026-05-04 13:53 23.63710 42.35886 35981 ft 435 kts 283°
2026-05-04 13:53 23.65544 42.29598 35982 ft 434 kts 283°
2026-05-04 13:54 23.68272 42.20203 35976 ft 434 kts 283°
2026-05-04 13:55 23.70998 42.10780 35975 ft 434 kts 282°
2026-05-04 13:55 23.73719 42.01355 35978 ft 434 kts 282°
2026-05-04 13:56 23.75528 41.95084 35971 ft 433 kts 282°
2026-05-04 13:57 23.78240 41.85702 35970 ft 433 kts 282°
2026-05-04 13:58 23.81835 41.73218 35981 ft 432 kts 282°
2026-05-04 13:58 23.84518 41.63859 35968 ft 432 kts 282°
2026-05-04 13:59 23.86310 41.57597 35970 ft 431 kts 282°
2026-05-04 14:00 23.88681 41.49273 35965 ft 431 kts 282°
2026-05-04 14:00 23.91341 41.39891 35959 ft 431 kts 282°
2026-05-04 14:01 23.93112 41.33637 35957 ft 430 kts 282°
2026-05-04 14:02 23.95760 41.24300 35952 ft 430 kts 282°
2026-05-04 14:02 23.97530 41.18043 35950 ft 430 kts 282°
2026-05-04 14:03 23.99297 41.11787 35947 ft 430 kts 282°
2026-05-04 14:03 24.01061 41.05530 35943 ft 430 kts 282°
2026-05-04 14:04 24.03699 40.96152 35939 ft 430 kts 282°
2026-05-04 14:04 24.05455 40.89897 35934 ft 430 kts 282°
2026-05-04 14:05 24.08079 40.80528 35933 ft 428 kts 281°
2026-05-04 14:06 24.09785 40.74423 35922 ft 427 kts 281°
2026-05-04 14:06 24.11526 40.68177 35927 ft 426 kts 281°
2026-05-04 14:07 24.13243 40.62016 35918 ft 425 kts 281°
2026-05-04 14:07 24.14967 40.55812 35929 ft 425 kts 281°
2026-05-04 14:08 24.16776 40.50328 35926 ft 431 kts 288°
2026-05-04 14:08 24.19541 40.44465 35925 ft 434 kts 291°
2026-05-04 14:09 24.23748 40.35702 35926 ft 433 kts 291°
2026-05-04 14:10 24.27921 40.26977 35930 ft 432 kts 291°
2026-05-04 14:10 24.30715 40.21133 35930 ft 432 kts 291°
2026-05-04 14:11 24.33505 40.15288 35929 ft 432 kts 290°
2026-05-04 14:11 24.37637 40.06618 35932 ft 432 kts 290°
2026-05-04 14:12 24.40416 40.00779 35928 ft 431 kts 290°
2026-05-04 14:13 24.44560 39.92056 35917 ft 431 kts 290°
2026-05-04 14:13 24.47326 39.86226 35921 ft 430 kts 290°
2026-05-04 14:14 24.50092 39.80389 35912 ft 429 kts 290°
2026-05-04 14:14 24.54676 39.71908 35916 ft 438 kts 301°
2026-05-04 14:15 24.59050 39.67112 35911 ft 452 kts 313°
2026-05-04 14:15 24.64148 39.63053 35923 ft 456 kts 315°
2026-05-04 14:16 24.71761 39.56975 35932 ft 456 kts 315°
2026-05-04 14:17 24.79464 39.50811 35922 ft 456 kts 315°
2026-05-04 14:18 24.87167 39.44643 35930 ft 456 kts 315°
2026-05-04 14:19 24.97424 39.36407 35930 ft 456 kts 315°
2026-05-04 14:19 25.02568 39.32272 35931 ft 456 kts 315°
2026-05-04 14:20 25.07665 39.28173 35929 ft 457 kts 315°
2026-05-04 14:20 25.12796 39.24040 35927 ft 456 kts 314°
2026-05-04 14:21 25.20302 39.17642 35919 ft 447 kts 307°
2026-05-04 14:21 25.24384 39.12597 35929 ft 435 kts 298°
2026-05-04 14:22 25.27695 39.07068 35933 ft 430 kts 295°
2026-05-04 14:22 25.30949 39.01520 35909 ft 430 kts 295°
2026-05-04 14:23 25.35786 38.93256 35909 ft 429 kts 295°
2026-05-04 14:24 25.38997 38.87751 35905 ft 429 kts 295°
2026-05-04 14:24 25.42225 38.82211 35906 ft 428 kts 295°
2026-05-04 14:25 25.45449 38.76673 35900 ft 428 kts 295°
2026-05-04 14:25 25.50241 38.68428 35886 ft 427 kts 294°
2026-05-04 14:26 25.53452 38.62897 35876 ft 427 kts 294°
2026-05-04 14:26 25.56645 38.57387 35877 ft 427 kts 294°
2026-05-04 14:27 25.59850 38.51850 35872 ft 427 kts 294°
2026-05-04 14:27 25.63059 38.46302 35869 ft 427 kts 294°
2026-05-04 14:28 25.66248 38.40781 35873 ft 428 kts 294°
2026-05-04 14:28 25.69456 38.35220 35872 ft 428 kts 294°
2026-05-04 14:29 25.75868 38.24088 35871 ft 429 kts 294°
2026-05-04 14:30 25.79077 38.18504 35869 ft 428 kts 294°
2026-05-04 14:31 25.83881 38.10137 35875 ft 429 kts 294°
2026-05-04 14:32 25.90297 37.98931 35902 ft 431 kts 295°
2026-05-04 14:32 25.93499 37.93327 35908 ft 432 kts 294°
2026-05-04 14:33 25.96714 37.87688 35911 ft 431 kts 295°
2026-05-04 14:33 25.99497 37.81862 35920 ft 422 kts 285°
2026-05-04 14:34 26.01192 37.75686 35919 ft 414 kts 276°
2026-05-04 14:34 26.02061 37.69416 35926 ft 412 kts 274°
2026-05-04 14:35 26.02922 37.63114 35926 ft 412 kts 274°
2026-05-04 14:35 26.03779 37.56798 35926 ft 413 kts 274°
2026-05-04 14:36 26.04632 37.50467 35924 ft 415 kts 273°
2026-05-04 14:36 26.05482 37.44139 35935 ft 411 kts 274°
2026-05-04 14:37 26.06325 37.37856 35923 ft 411 kts 273°
2026-05-04 14:37 26.07163 37.31560 35925 ft 411 kts 273°
2026-05-04 14:38 26.07997 37.25282 35920 ft 410 kts 273°
2026-05-04 14:38 26.08824 37.19039 35922 ft 410 kts 273°
2026-05-04 14:39 26.09651 37.12768 35913 ft 409 kts 273°
2026-05-04 14:39 26.10478 37.06504 35917 ft 408 kts 273°
2026-05-04 14:40 26.11705 36.97118 35912 ft 408 kts 273°
2026-05-04 14:40 26.12514 36.90911 35911 ft 408 kts 273°
2026-05-04 14:41 26.13325 36.84669 35915 ft 407 kts 273°
2026-05-04 14:42 26.14939 36.72196 35914 ft 406 kts 273°
2026-05-04 14:42 26.15740 36.65969 35910 ft 406 kts 273°
2026-05-04 14:43 26.16537 36.59746 35911 ft 406 kts 273°
2026-05-04 14:43 26.17440 36.53529 35916 ft 409 kts 279°
2026-05-04 14:44 26.19640 36.47647 35921 ft 423 kts 294°
2026-05-04 14:44 26.23417 36.42468 35924 ft 438 kts 306°
2026-05-04 14:45 26.27675 36.37627 35908 ft 437 kts 305°
2026-05-04 14:45 26.31147 36.33625 35912 ft 437 kts 305°
2026-05-04 14:46 26.35404 36.28708 35915 ft 437 kts 305°
2026-05-04 14:46 26.39625 36.23831 35922 ft 437 kts 305°
2026-05-04 14:47 26.43845 36.18950 35922 ft 436 kts 305°
2026-05-04 14:47 26.48057 36.14075 35920 ft 436 kts 305°
2026-05-04 14:48 26.52268 36.09193 35921 ft 436 kts 305°
2026-05-04 14:48 26.56449 36.04342 35924 ft 436 kts 305°
2026-05-04 14:49 26.60658 35.99452 35920 ft 436 kts 305°
2026-05-04 14:49 26.64859 35.94566 35923 ft 436 kts 305°
2026-05-04 14:50 26.69051 35.89685 35922 ft 435 kts 305°
2026-05-04 14:50 26.73219 35.84826 35924 ft 435 kts 305°
2026-05-04 14:51 26.77256 35.80113 35923 ft 435 kts 305°
2026-05-04 14:51 26.81446 35.75217 35923 ft 435 kts 305°
2026-05-04 14:52 26.85635 35.70318 35925 ft 435 kts 305°
2026-05-04 14:52 26.89820 35.65420 35927 ft 435 kts 305°
2026-05-04 14:53 26.94007 35.60512 35928 ft 435 kts 305°
2026-05-04 14:53 26.98187 35.55607 35928 ft 435 kts 305°
2026-05-04 14:54 27.02367 35.50695 35929 ft 435 kts 305°
2026-05-04 14:54 27.06548 35.45778 35930 ft 435 kts 305°
2026-05-04 14:55 27.10720 35.40865 35928 ft 435 kts 305°
2026-05-04 14:55 27.14871 35.35972 35926 ft 435 kts 305°
2026-05-04 14:56 27.19048 35.31042 35935 ft 435 kts 305°
2026-05-04 14:56 27.23221 35.26111 35944 ft 434 kts 305°
2026-05-04 14:57 27.27381 35.21190 35925 ft 434 kts 305°
2026-05-04 14:57 27.31544 35.16259 35920 ft 434 kts 305°
2026-05-04 14:58 27.35686 35.11348 35919 ft 434 kts 305°
2026-05-04 14:58 27.39817 35.06444 35920 ft 434 kts 305°
2026-05-04 14:59 27.43968 35.01511 35916 ft 434 kts 305°
2026-05-04 15:00 27.50142 34.94163 35915 ft 434 kts 305°
2026-05-04 15:00 27.54402 34.89501 35914 ft 437 kts 308°
2026-05-04 15:01 27.61050 34.82497 35915 ft 437 kts 308°
2026-05-04 15:01 27.65488 34.77803 35915 ft 437 kts 308°
2026-05-04 15:02 27.69921 34.73109 35922 ft 437 kts 308°
2026-05-04 15:02 27.74321 34.68444 35925 ft 437 kts 308°
2026-05-04 15:03 27.78748 34.63743 35936 ft 436 kts 308°
2026-05-04 15:03 27.83167 34.59046 35947 ft 436 kts 308°
2026-05-04 15:04 27.87584 34.54348 35943 ft 436 kts 308°
2026-05-04 15:04 27.91991 34.49653 35953 ft 435 kts 308°
2026-05-04 15:05 27.96397 34.44955 35957 ft 435 kts 308°
2026-05-04 15:05 28.00668 34.40152 35967 ft 428 kts 303°
2026-05-04 15:06 28.04416 34.34956 35965 ft 426 kts 301°
2026-05-04 15:07 28.10050 34.27169 35958 ft 425 kts 301°
2026-05-04 15:07 28.13801 34.21972 35962 ft 425 kts 301°
2026-05-04 15:08 28.17545 34.16772 35963 ft 426 kts 301°
2026-05-04 15:08 28.21289 34.11570 35971 ft 425 kts 301°
2026-05-04 15:09 28.25009 34.06403 35975 ft 425 kts 301°
2026-05-04 15:09 28.28724 34.01227 35990 ft 421 kts 301°
2026-05-04 15:10 28.34181 33.93610 35987 ft 424 kts 301°
2026-05-04 15:11 28.39752 33.85831 35985 ft 422 kts 301°
2026-05-04 15:11 28.43460 33.80641 35985 ft 423 kts 301°
2026-05-04 15:12 28.47161 33.75461 36005 ft 420 kts 301°
2026-05-04 15:12 28.50830 33.70322 36003 ft 422 kts 301°
2026-05-04 15:13 28.54461 33.65225 36010 ft 421 kts 301°
2026-05-04 15:13 28.58152 33.60035 36007 ft 421 kts 301°
2026-05-04 15:14 28.61834 33.54861 35995 ft 421 kts 301°
2026-05-04 15:14 28.65504 33.49692 36002 ft 420 kts 301°
2026-05-04 15:15 28.69149 33.44547 36014 ft 419 kts 301°
2026-05-04 15:15 28.72815 33.39370 36020 ft 420 kts 301°
2026-05-04 15:16 28.78299 33.31614 36015 ft 418 kts 301°
2026-05-04 15:17 28.83776 33.23853 36020 ft 418 kts 301°
2026-05-04 15:17 28.89244 33.16091 36000 ft 417 kts 301°
2026-05-04 15:18 28.92853 33.10959 35989 ft 417 kts 301°
2026-05-04 15:19 28.98043 33.03567 35989 ft 417 kts 301°
2026-05-04 15:19 29.03494 32.95792 35993 ft 417 kts 301°
2026-05-04 15:20 29.07120 32.90610 35995 ft 418 kts 301°
2026-05-04 15:20 29.10730 32.85446 36003 ft 418 kts 301°
2026-05-04 15:21 29.14365 32.80240 36002 ft 418 kts 301°
2026-05-04 15:22 29.19816 32.72419 36017 ft 419 kts 301°
2026-05-04 15:22 29.25261 32.64595 36029 ft 419 kts 301°
2026-05-04 15:23 29.28884 32.59379 36036 ft 418 kts 301°
2026-05-04 15:23 29.32469 32.54168 36043 ft 418 kts 301°
2026-05-04 15:24 29.39641 32.43701 36044 ft 416 kts 301°
2026-05-04 15:25 29.43220 32.38477 36047 ft 416 kts 301°
2026-05-04 15:26 29.48551 32.30680 36050 ft 415 kts 301°
2026-05-04 15:26 29.53892 32.22853 36061 ft 414 kts 301°
2026-05-04 15:27 29.59215 32.15039 36059 ft 414 kts 301°
2026-05-04 15:28 29.64545 32.07199 36063 ft 414 kts 301°
2026-05-04 15:29 29.69841 31.99391 36072 ft 414 kts 301°
2026-05-04 15:30 29.81538 31.81934 36066 ft 413 kts 299°
2026-05-04 15:31 29.86628 31.73930 36061 ft 413 kts 300°
2026-05-04 15:32 29.95145 31.60669 36060 ft 412 kts 300°
2026-05-04 15:34 30.03692 31.47453 36058 ft 411 kts 300°
2026-05-04 15:34 30.08881 31.39546 36061 ft 414 kts 303°
2026-05-04 15:35 30.15125 31.32545 36059 ft 420 kts 309°
2026-05-04 15:36 30.21545 31.25643 36056 ft 419 kts 309°
2026-05-04 15:36 30.25820 31.21041 36061 ft 419 kts 309°
2026-05-04 15:37 30.30077 31.16456 36068 ft 419 kts 309°
2026-05-04 15:37 30.34313 31.11888 36056 ft 418 kts 309°
2026-05-04 15:38 30.38563 31.07298 36065 ft 418 kts 309°
2026-05-04 15:38 30.42790 31.02728 36076 ft 417 kts 309°
2026-05-04 15:39 30.47033 30.98135 36078 ft 417 kts 309°
2026-05-04 15:40 30.53396 30.91237 36081 ft 417 kts 309°
2026-05-04 15:40 30.57633 30.86637 36079 ft 417 kts 309°
2026-05-04 15:41 30.61861 30.82040 36080 ft 417 kts 309°
2026-05-04 15:41 30.65982 30.77554 36083 ft 416 kts 309°
2026-05-04 15:42 30.69972 30.73205 36088 ft 416 kts 309°
2026-05-04 15:42 30.74193 30.68599 36086 ft 416 kts 309°
2026-05-04 15:43 30.78413 30.63989 36081 ft 416 kts 309°
2026-05-04 15:43 30.82630 30.59376 36089 ft 416 kts 309°
2026-05-04 15:44 30.86841 30.54763 36104 ft 415 kts 309°
2026-05-04 15:44 30.91050 30.50146 36087 ft 415 kts 309°
2026-05-04 15:45 30.95258 30.45524 36086 ft 415 kts 309°
2026-05-04 15:45 30.99397 30.40973 36091 ft 415 kts 309°
2026-05-04 15:46 31.03598 30.36347 36090 ft 416 kts 309°
2026-05-04 15:46 31.07498 30.31450 36088 ft 408 kts 300°
2026-05-04 15:47 31.10288 30.25769 36087 ft 401 kts 289°
2026-05-04 15:47 31.12065 30.19621 36085 ft 400 kts 284°
2026-05-04 15:48 31.13759 30.13421 36093 ft 401 kts 285°
2026-05-04 15:48 31.16305 30.04104 36098 ft 402 kts 285°
2026-05-04 15:49 31.18116 29.97955 36099 ft 405 kts 289°
2026-05-04 15:49 31.20724 29.92084 36102 ft 410 kts 297°
2026-05-04 15:50 31.24043 29.86626 36104 ft 413 kts 301°
2026-05-04 15:50 31.27433 29.81202 36108 ft 413 kts 301°
2026-05-04 15:51 31.30818 29.75762 36110 ft 413 kts 301°
2026-05-04 15:51 31.34179 29.70360 36117 ft 413 kts 301°
2026-05-04 15:52 31.37534 29.64963 36109 ft 413 kts 301°
2026-05-04 15:52 31.40927 29.59498 36108 ft 412 kts 301°
2026-05-04 15:53 31.44295 29.54065 36105 ft 412 kts 301°
2026-05-04 15:53 31.47665 29.48621 36108 ft 412 kts 301°
2026-05-04 15:54 31.51000 29.43227 36108 ft 411 kts 301°
2026-05-04 15:54 31.54351 29.37798 36106 ft 411 kts 301°
2026-05-04 15:55 31.57701 29.32363 36104 ft 410 kts 301°
2026-05-04 15:55 31.61043 29.26929 36103 ft 410 kts 301°
2026-05-04 15:56 31.64374 29.21494 36101 ft 410 kts 301°
2026-05-04 15:56 31.67713 29.16047 36103 ft 410 kts 301°
2026-05-04 15:57 31.71046 29.10621 36097 ft 410 kts 303°
2026-05-04 15:57 31.74693 29.05827 36103 ft 416 kts 311°
2026-05-04 15:58 31.79175 29.01445 36095 ft 419 kts 315°
2026-05-04 15:58 31.83713 28.97099 36198 ft 420 kts 315°
2026-05-04 15:59 31.85971 28.94916 36060 ft 421 kts 315°
2026-05-04 15:59 31.88232 28.92728 35826 ft 419 kts 315°
2026-05-04 15:59 31.90482 28.90551 35573 ft 418 kts 315°
2026-05-04 15:59 31.92724 28.88380 35325 ft 418 kts 315°
2026-05-04 16:00 31.94942 28.86232 35095 ft 418 kts 315°
2026-05-04 16:00 31.97187 28.84056 34857 ft 418 kts 315°
2026-05-04 16:00 31.99427 28.81884 34625 ft 417 kts 315°
2026-05-04 16:00 32.01674 28.79705 34389 ft 417 kts 315°
2026-05-04 16:01 32.03911 28.77534 34168 ft 416 kts 315°
2026-05-04 16:01 32.06141 28.75369 33903 ft 416 kts 315°
2026-05-04 16:01 32.08375 28.73198 33626 ft 416 kts 315°
2026-05-04 16:01 32.10610 28.71025 33374 ft 416 kts 315°
2026-05-04 16:02 32.12843 28.68852 33123 ft 416 kts 315°
2026-05-04 16:02 32.15079 28.66677 32857 ft 417 kts 315°
2026-05-04 16:02 32.19517 28.62354 32346 ft 417 kts 315°
2026-05-04 16:03 32.21750 28.60176 32086 ft 417 kts 315°
2026-05-04 16:03 32.23965 28.58016 31831 ft 417 kts 315°
2026-05-04 16:03 32.26190 28.55845 31591 ft 414 kts 315°
2026-05-04 16:03 32.28407 28.53681 31349 ft 412 kts 315°
2026-05-04 16:04 32.30609 28.51529 31108 ft 410 kts 315°
2026-05-04 16:04 32.34829 28.47402 30640 ft 406 kts 315°
2026-05-04 16:04 32.36972 28.45302 30407 ft 403 kts 315°
2026-05-04 16:05 32.39127 28.43189 30163 ft 401 kts 315°
2026-05-04 16:05 32.41265 28.41093 29889 ft 398 kts 315°
2026-05-04 16:05 32.45510 28.36927 29339 ft 395 kts 315°
2026-05-04 16:06 32.47618 28.34857 29080 ft 393 kts 315°
2026-05-04 16:06 32.53191 28.29379 28369 ft 388 kts 315°
2026-05-04 16:07 32.55968 28.26647 28042 ft 386 kts 315°
2026-05-04 16:07 32.62137 28.20567 27259 ft 382 kts 315°
2026-05-04 16:08 32.64173 28.18558 27010 ft 381 kts 315°
2026-05-04 16:08 32.70226 28.12576 26276 ft 377 kts 315°
2026-05-04 16:09 32.74243 28.08602 25788 ft 374 kts 315°
2026-05-04 16:09 32.78234 28.04647 25315 ft 372 kts 315°
2026-05-04 16:10 32.82205 28.00709 24854 ft 370 kts 315°
2026-05-04 16:11 32.88111 27.94843 24165 ft 367 kts 315°
2026-05-04 16:11 32.90044 27.92920 23944 ft 366 kts 315°
2026-05-04 16:12 32.95879 27.87110 23194 ft 362 kts 315°
2026-05-04 16:12 33.01633 27.81371 22388 ft 357 kts 315°
2026-05-04 16:13 33.05423 27.77586 21876 ft 354 kts 315°
2026-05-04 16:13 33.09153 27.73855 21368 ft 350 kts 315°
2026-05-04 16:14 33.12872 27.70132 20874 ft 348 kts 315°
2026-05-04 16:14 33.16558 27.66437 20379 ft 344 kts 315°
2026-05-04 16:15 33.21419 27.61559 19751 ft 341 kts 315°
2026-05-04 16:16 33.25029 27.57931 19264 ft 338 kts 315°
2026-05-04 16:16 33.30450 27.52475 19815 ft 341 kts 315°
2026-05-04 16:17 33.34079 27.48819 20696 ft 345 kts 315°
2026-05-04 16:18 33.39623 27.43224 22025 ft 352 kts 315°
2026-05-04 16:18 33.41503 27.41325 22469 ft 355 kts 315°
2026-05-04 16:19 33.47223 27.35540 23794 ft 362 kts 315°
2026-05-04 16:19 33.51088 27.31626 24599 ft 365 kts 315°
2026-05-04 16:20 33.56934 27.25696 25802 ft 370 kts 315°
2026-05-04 16:20 33.60880 27.21687 26545 ft 373 kts 315°
2026-05-04 16:21 33.66857 27.15605 27664 ft 378 kts 315°
2026-05-04 16:22 33.70724 27.11664 28342 ft 382 kts 315°
2026-05-04 16:22 33.76843 27.05417 29333 ft 387 kts 315°
2026-05-04 16:23 33.83044 26.99076 30281 ft 393 kts 315°
2026-05-04 16:24 33.91459 26.90450 31295 ft 401 kts 315°
2026-05-04 16:25 33.95726 26.86069 31683 ft 405 kts 315°
2026-05-04 16:26 34.04493 26.77382 32380 ft 410 kts 318°
2026-05-04 16:26 34.11328 26.71150 32951 ft 410 kts 317°
2026-05-04 16:27 34.15831 26.66978 33316 ft 411 kts 317°
2026-05-04 16:28 34.22635 26.60646 33856 ft 412 kts 317°
2026-05-04 16:28 34.29446 26.54291 34328 ft 413 kts 317°
2026-05-04 16:29 34.38568 26.45758 34872 ft 415 kts 317°
2026-05-04 16:30 34.45408 26.39343 35276 ft 416 kts 318°
2026-05-04 16:31 34.50008 26.35021 35555 ft 417 kts 318°
2026-05-04 16:31 34.56904 26.28532 35953 ft 419 kts 318°
2026-05-04 16:32 34.63783 26.22044 36097 ft 419 kts 318°
2026-05-04 16:33 34.72952 26.13373 36107 ft 420 kts 318°
2026-05-04 16:34 34.79863 26.06822 36107 ft 420 kts 318°
2026-05-04 16:35 34.93655 25.93704 36115 ft 421 kts 318°
2026-05-04 16:36 35.00579 25.87098 36121 ft 421 kts 318°
2026-05-04 16:37 35.07495 25.80484 36122 ft 421 kts 318°
2026-05-04 16:38 35.16719 25.71640 36128 ft 422 kts 319°
2026-05-04 16:39 35.28241 25.60555 36136 ft 423 kts 319°
2026-05-04 16:40 35.37504 25.51615 36136 ft 424 kts 319°
2026-05-04 16:41 35.49080 25.40403 36133 ft 424 kts 319°
2026-05-04 16:43 35.60639 25.29166 36129 ft 425 kts 319°
2026-05-04 16:43 35.67553 25.22423 36108 ft 426 kts 319°
2026-05-04 16:45 35.81388 25.08886 36119 ft 428 kts 319°
2026-05-04 16:46 35.93056 24.97419 36116 ft 429 kts 320°
2026-05-04 16:47 36.02405 24.88201 36114 ft 430 kts 320°
2026-05-04 16:48 36.11724 24.78982 36111 ft 430 kts 320°
2026-05-04 16:49 36.21070 24.69709 36117 ft 430 kts 320°
2026-05-04 16:50 36.30277 24.60543 36110 ft 430 kts 320°
2026-05-04 16:51 36.37275 24.53559 36115 ft 430 kts 320°
2026-05-04 16:52 36.46603 24.44223 36097 ft 430 kts 320°
2026-05-04 16:53 36.53541 24.37259 36105 ft 430 kts 320°
2026-05-04 16:54 36.62805 24.27936 36103 ft 429 kts 320°
2026-05-04 16:55 36.76739 24.13856 36106 ft 430 kts 320°
2026-05-04 16:56 36.88333 24.02088 36100 ft 431 kts 320°
2026-05-04 16:57 36.95312 23.94982 36101 ft 431 kts 320°
2026-05-04 16:58 37.04613 23.85483 36105 ft 431 kts 321°
2026-05-04 17:00 37.18492 23.71252 36110 ft 430 kts 321°
2026-05-04 17:01 37.29274 23.60149 36115 ft 430 kts 321°
2026-05-04 17:02 37.38353 23.50767 36116 ft 430 kts 321°
2026-05-04 17:03 37.44974 23.43904 36121 ft 429 kts 321°
2026-05-04 17:03 37.51854 23.36757 36118 ft 430 kts 321°
2026-05-04 17:04 37.61063 23.27162 36117 ft 431 kts 321°
2026-05-04 17:05 37.70201 23.17609 36124 ft 431 kts 321°
2026-05-04 17:06 37.77044 23.10435 36127 ft 431 kts 321°
2026-05-04 17:07 37.83178 23.03994 36124 ft 430 kts 321°
2026-05-04 17:07 37.88554 22.98338 36126 ft 430 kts 321°
2026-05-04 17:08 37.95455 22.91064 36122 ft 430 kts 321°
2026-05-04 17:09 38.00028 22.86246 36117 ft 430 kts 321°
2026-05-04 17:09 38.04632 22.81401 36124 ft 430 kts 321°
2026-05-04 17:10 38.16076 22.69323 36125 ft 430 kts 321°
2026-05-04 17:11 38.20676 22.64450 36129 ft 430 kts 321°
2026-05-04 17:12 38.27546 22.57157 36122 ft 430 kts 322°
2026-05-04 17:13 38.38787 22.45187 36125 ft 428 kts 322°
2026-05-04 17:14 38.47813 22.35539 36139 ft 427 kts 322°
2026-05-04 17:15 38.52916 22.30072 36135 ft 428 kts 322°
2026-05-04 17:23 38.56240 22.26084 36145 ft 427 kts 317°
2026-05-04 17:24 38.62526 22.18014 36133 ft 426 kts 317°
2026-05-04 17:25 38.70894 22.07641 36134 ft 425 kts 318°
2026-05-04 17:26 38.79402 21.97102 36133 ft 425 kts 318°
2026-05-04 17:27 38.89951 21.83967 36139 ft 425 kts 318°
2026-05-04 17:28 38.98134 21.73735 36129 ft 423 kts 318°
2026-05-04 17:29 39.10776 21.57843 36126 ft 422 kts 318°
2026-05-04 17:31 39.21288 21.44555 36114 ft 422 kts 318°
2026-05-04 17:32 39.31739 21.31287 36120 ft 422 kts 318°
2026-05-04 17:33 39.39921 21.20736 36134 ft 424 kts 313°
2026-05-04 17:34 39.46099 21.07548 36124 ft 429 kts 305°
2026-05-04 17:35 39.53721 20.91602 36125 ft 429 kts 306°
2026-05-04 17:36 39.56881 20.85025 36122 ft 429 kts 306°
2026-05-04 17:36 39.60026 20.78455 36130 ft 429 kts 306°
2026-05-04 17:37 39.63174 20.71857 36131 ft 430 kts 306°
2026-05-04 17:37 39.66319 20.65251 36132 ft 430 kts 306°
2026-05-04 17:38 39.69407 20.58753 36128 ft 430 kts 306°
2026-05-04 17:38 39.72523 20.52180 36125 ft 430 kts 306°
2026-05-04 17:39 39.77216 20.42259 36131 ft 430 kts 305°
2026-05-04 17:39 39.80339 20.35635 36121 ft 428 kts 305°
2026-05-04 17:40 39.83443 20.29044 36112 ft 428 kts 305°
2026-05-04 17:40 39.86548 20.22431 36112 ft 428 kts 305°
2026-05-04 17:41 39.89652 20.15811 36105 ft 427 kts 305°
2026-05-04 17:41 39.92676 20.09350 36103 ft 428 kts 305°
2026-05-04 17:42 39.95768 20.02728 36109 ft 428 kts 305°
2026-05-04 17:42 39.98863 19.96085 36110 ft 428 kts 305°
2026-05-04 17:43 40.01957 19.89429 36110 ft 430 kts 304°
2026-05-04 17:43 40.05053 19.82752 36120 ft 429 kts 304°
2026-05-04 17:44 40.08144 19.76079 36118 ft 429 kts 304°
2026-05-04 17:44 40.11227 19.69402 36114 ft 429 kts 304°
2026-05-04 17:45 40.14230 19.62885 36110 ft 429 kts 304°
2026-05-04 17:45 40.17304 19.56199 36114 ft 429 kts 304°
2026-05-04 17:46 40.19854 19.50647 36114 ft 429 kts 304°
2026-05-04 17:46 40.22928 19.43936 36113 ft 429 kts 304°
2026-05-04 17:47 40.25993 19.37228 36110 ft 429 kts 304°
2026-05-04 17:47 40.29056 19.30509 36116 ft 429 kts 304°
2026-05-04 17:48 40.32070 19.23887 36119 ft 429 kts 304°
2026-05-04 17:48 40.34985 19.17467 36119 ft 429 kts 304°
2026-05-04 17:49 40.38034 19.10739 36118 ft 429 kts 303°
2026-05-04 17:49 40.41084 19.03994 36123 ft 429 kts 303°
2026-05-04 17:50 40.44134 18.97232 36128 ft 429 kts 303°
2026-05-04 17:50 40.47155 18.90521 36129 ft 429 kts 303°
2026-05-04 17:51 40.50191 18.83763 36118 ft 430 kts 303°
2026-05-04 17:51 40.53226 18.76990 36119 ft 430 kts 303°
2026-05-04 17:52 40.56258 18.70211 36111 ft 430 kts 303°
2026-05-04 17:52 40.59269 18.63461 36111 ft 430 kts 303°
2026-05-04 17:53 40.62293 18.56668 36106 ft 430 kts 303°
2026-05-04 17:53 40.65291 18.49921 36106 ft 430 kts 303°
2026-05-04 17:54 40.68224 18.43305 36062 ft 430 kts 302°
2026-05-04 17:54 40.71252 18.36468 36098 ft 429 kts 302°
2026-05-04 17:55 40.74157 18.29883 36096 ft 430 kts 302°
2026-05-04 17:55 40.77143 18.23099 36120 ft 430 kts 302°
2026-05-04 17:56 40.80144 18.16268 36118 ft 430 kts 302°
2026-05-04 17:56 40.83146 18.09421 36107 ft 431 kts 302°
2026-05-04 17:57 40.86143 18.02569 36108 ft 430 kts 302°
2026-05-04 17:57 40.89132 17.95720 36111 ft 430 kts 302°
2026-05-04 17:58 40.92119 17.88859 36111 ft 430 kts 302°
2026-05-04 17:58 40.95078 17.82046 36111 ft 430 kts 301°
2026-05-04 17:59 40.98056 17.75177 36111 ft 430 kts 301°
2026-05-04 18:00 41.02516 17.64857 36109 ft 430 kts 301°
2026-05-04 18:00 41.05466 17.58014 36117 ft 429 kts 301°
2026-05-04 18:01 41.08424 17.51134 36116 ft 429 kts 301°
2026-05-04 18:01 41.11376 17.44253 36117 ft 429 kts 301°
2026-05-04 18:02 41.15368 17.34925 36115 ft 429 kts 301°
2026-05-04 18:02 41.18306 17.28038 36112 ft 428 kts 301°
2026-05-04 18:03 41.21221 17.21193 36116 ft 428 kts 301°
2026-05-04 18:03 41.24145 17.14309 36115 ft 427 kts 301°
2026-05-04 18:04 41.27058 17.07435 36112 ft 426 kts 301°
2026-05-04 18:05 41.31383 16.97201 36109 ft 425 kts 300°
2026-05-04 18:05 41.34274 16.90339 36106 ft 424 kts 300°
2026-05-04 18:06 41.38575 16.80103 36106 ft 423 kts 300°
2026-05-04 18:06 41.41443 16.73257 36106 ft 423 kts 300°
2026-05-04 18:07 41.44304 16.66413 36106 ft 422 kts 300°
2026-05-04 18:07 41.47152 16.59584 36103 ft 421 kts 300°
2026-05-04 18:08 41.49994 16.52753 36105 ft 420 kts 300°
2026-05-04 18:08 41.52809 16.45973 36101 ft 420 kts 300°
2026-05-04 18:09 41.58457 16.32320 36097 ft 419 kts 300°
2026-05-04 18:10 41.61267 16.25505 36096 ft 419 kts 300°
2026-05-04 18:10 41.64078 16.18670 36097 ft 419 kts 300°
2026-05-04 18:11 41.66881 16.11837 36106 ft 419 kts 300°
2026-05-04 18:11 41.69659 16.05055 36102 ft 418 kts 300°
2026-05-04 18:12 41.72385 15.98383 36103 ft 418 kts 299°
2026-05-04 18:12 41.75176 15.91535 36110 ft 418 kts 299°
2026-05-04 18:13 41.77963 15.84679 36116 ft 419 kts 299°
2026-05-04 18:14 41.82140 15.74373 36127 ft 419 kts 299°
2026-05-04 18:14 41.84911 15.67517 36128 ft 420 kts 299°
2026-05-04 18:15 41.90469 15.53722 36114 ft 420 kts 299°
2026-05-04 18:16 41.93248 15.46800 36101 ft 420 kts 299°
2026-05-04 18:16 41.96012 15.39896 36090 ft 419 kts 299°
2026-05-04 18:17 42.00145 15.29545 36077 ft 419 kts 298°
2026-05-04 18:18 42.04251 15.19226 36073 ft 418 kts 298°
2026-05-04 18:18 42.06994 15.12312 36074 ft 418 kts 298°
2026-05-04 18:19 42.11046 15.02067 36074 ft 418 kts 298°
2026-05-04 18:19 42.13756 14.95193 36072 ft 417 kts 298°
2026-05-04 18:20 42.16476 14.88279 36072 ft 417 kts 298°
2026-05-04 18:20 42.19189 14.81367 36073 ft 417 kts 298°
2026-05-04 18:21 42.21897 14.74452 36073 ft 416 kts 298°
2026-05-04 18:21 42.24599 14.67534 36074 ft 416 kts 298°
2026-05-04 18:22 42.27275 14.60668 36076 ft 416 kts 298°
2026-05-04 18:22 42.29963 14.53754 36074 ft 415 kts 298°
2026-05-04 18:23 42.32646 14.46840 36075 ft 415 kts 298°
2026-05-04 18:23 42.35329 14.39917 36077 ft 415 kts 297°
2026-05-04 18:24 42.38005 14.32999 36079 ft 415 kts 297°
2026-05-04 18:24 42.40664 14.26105 36077 ft 415 kts 297°
2026-05-04 18:25 42.43808 14.19567 36075 ft 416 kts 309°
2026-05-04 18:25 42.48031 14.14173 36074 ft 419 kts 320°
2026-05-04 18:26 42.52801 14.09603 36073 ft 420 kts 321°
2026-05-04 18:26 42.57574 14.05003 36072 ft 420 kts 321°
2026-05-04 18:27 42.62347 14.00399 36075 ft 421 kts 321°
2026-05-04 18:27 42.66809 13.96094 36077 ft 421 kts 321°
2026-05-04 18:28 42.71536 13.91525 36083 ft 422 kts 321°
2026-05-04 18:28 42.76144 13.87060 36082 ft 422 kts 321°
2026-05-04 18:29 42.80932 13.82411 36087 ft 423 kts 321°
2026-05-04 18:29 42.85727 13.77745 36089 ft 423 kts 321°
2026-05-04 18:30 42.92913 13.70734 36086 ft 424 kts 321°
2026-05-04 18:31 42.97712 13.66042 36088 ft 424 kts 321°
2026-05-04 18:31 43.02485 13.61365 36086 ft 425 kts 321°
2026-05-04 18:32 43.07303 13.56636 36083 ft 426 kts 321°
2026-05-04 18:32 43.11310 13.52695 36088 ft 426 kts 321°
2026-05-04 18:33 43.16136 13.47940 36088 ft 427 kts 321°
2026-05-04 18:33 43.20960 13.43178 36086 ft 427 kts 321°
2026-05-04 18:34 43.25784 13.38406 36090 ft 428 kts 321°
2026-05-04 18:34 43.30586 13.33647 36089 ft 428 kts 320°
2026-05-04 18:35 43.35335 13.28930 36086 ft 428 kts 320°
2026-05-04 18:35 43.39903 13.24385 36079 ft 429 kts 320°
2026-05-04 18:36 43.44515 13.19788 36076 ft 430 kts 320°
2026-05-04 18:36 43.49362 13.14946 36074 ft 431 kts 320°
2026-05-04 18:37 43.54214 13.10088 36076 ft 432 kts 320°
2026-05-04 18:37 43.59081 13.05207 36076 ft 433 kts 320°
2026-05-04 18:38 43.63954 13.00311 36079 ft 434 kts 320°
2026-05-04 18:38 43.68555 12.95676 36081 ft 434 kts 320°
2026-05-04 18:39 43.73475 12.90711 36080 ft 435 kts 320°
2026-05-04 18:39 43.78336 12.85797 36074 ft 436 kts 320°
2026-05-04 18:40 43.83228 12.80844 36067 ft 436 kts 320°
2026-05-04 18:40 43.88118 12.75877 36057 ft 436 kts 320°
2026-05-04 18:41 43.93013 12.70894 36050 ft 437 kts 320°
2026-05-04 18:41 43.97918 12.65894 36047 ft 437 kts 320°
2026-05-04 18:42 44.02828 12.60877 36048 ft 438 kts 320°
2026-05-04 18:42 44.07738 12.55849 36048 ft 438 kts 320°
2026-05-04 18:43 44.12655 12.50804 36034 ft 439 kts 320°
2026-05-04 18:43 44.17566 12.45754 36080 ft 439 kts 320°
2026-05-04 18:44 44.22462 12.40709 36088 ft 440 kts 320°
2026-05-04 18:44 44.27075 12.35946 36075 ft 441 kts 320°
2026-05-04 18:45 44.31567 12.31299 36070 ft 442 kts 320°
2026-05-04 18:45 44.36508 12.26177 36070 ft 443 kts 320°
2026-05-04 18:46 44.41461 12.21030 36075 ft 444 kts 320°
2026-05-04 18:46 44.46422 12.15866 36081 ft 444 kts 320°
2026-05-04 18:47 44.51383 12.10689 36084 ft 445 kts 320°
2026-05-04 18:47 44.56353 12.05492 36083 ft 446 kts 319°
2026-05-04 18:48 44.61298 12.00309 36087 ft 446 kts 319°
2026-05-04 18:48 44.66280 11.95077 36084 ft 447 kts 319°
2026-05-04 18:49 44.71229 11.89868 36087 ft 448 kts 319°
2026-05-04 18:49 44.76138 11.84690 36095 ft 449 kts 319°
2026-05-04 18:50 44.81139 11.79402 36092 ft 450 kts 319°
2026-05-04 18:50 44.86150 11.74093 36095 ft 450 kts 319°
2026-05-04 18:51 44.91163 11.68770 36104 ft 451 kts 319°
2026-05-04 18:51 44.96169 11.63442 36099 ft 451 kts 319°
2026-05-04 18:52 45.01186 11.58090 36104 ft 452 kts 319°
2026-05-04 18:52 45.06175 11.52757 36100 ft 452 kts 319°
2026-05-04 18:53 45.11099 11.47481 36092 ft 453 kts 319°
2026-05-04 18:53 45.15442 11.42818 36083 ft 453 kts 319°
2026-05-04 18:54 45.20477 11.37401 36070 ft 454 kts 319°
2026-05-04 18:54 45.25514 11.31968 36066 ft 455 kts 319°
2026-05-04 18:55 45.30541 11.26535 36064 ft 455 kts 319°
2026-05-04 18:55 45.37901 11.18557 36062 ft 456 kts 319°
2026-05-04 18:56 45.42949 11.13069 36059 ft 456 kts 319°
2026-05-04 18:56 45.48000 11.07566 36057 ft 457 kts 319°
2026-05-04 18:57 45.53047 11.02054 36050 ft 457 kts 319°
2026-05-04 18:57 45.58108 10.96516 36049 ft 458 kts 319°
2026-05-04 18:58 45.63136 10.91000 36064 ft 458 kts 319°
2026-05-04 18:58 45.68076 10.85566 36103 ft 458 kts 319°
2026-05-04 18:59 45.72809 10.80350 36106 ft 459 kts 319°
2026-05-04 18:59 45.77754 10.74885 36118 ft 459 kts 319°
2026-05-04 19:00 45.81926 10.70270 36133 ft 459 kts 319°
2026-05-04 19:00 45.86990 10.64650 36143 ft 459 kts 319°
2026-05-04 19:01 45.92049 10.59023 36153 ft 460 kts 319°
2026-05-04 19:01 45.97114 10.53373 36154 ft 461 kts 319°
2026-05-04 19:02 46.02181 10.47717 36160 ft 462 kts 319°
2026-05-04 19:02 46.07221 10.42075 36153 ft 461 kts 319°
2026-05-04 19:03 46.12292 10.36380 36144 ft 462 kts 319°
2026-05-04 19:03 46.17356 10.30680 36141 ft 462 kts 319°
2026-05-04 19:04 46.22430 10.24958 36136 ft 462 kts 319°
2026-05-04 19:04 46.27496 10.19229 36124 ft 462 kts 319°
2026-05-04 19:05 46.32558 10.13488 36132 ft 462 kts 319°
2026-05-04 19:05 46.36942 10.08508 36122 ft 463 kts 319°
2026-05-04 19:06 46.41996 10.02757 36131 ft 463 kts 319°
2026-05-04 19:06 46.47051 9.96987 36138 ft 463 kts 319°
2026-05-04 19:07 46.52026 9.91294 36136 ft 463 kts 319°
2026-05-04 19:07 46.56773 9.85851 36132 ft 463 kts 318°
2026-05-04 19:08 46.61825 9.80040 36131 ft 463 kts 318°
2026-05-04 19:08 46.66848 9.74252 36114 ft 463 kts 318°
2026-05-04 19:09 46.71797 9.68535 36087 ft 464 kts 318°
2026-05-04 19:09 46.76847 9.62685 36062 ft 464 kts 318°
2026-05-04 19:10 46.81900 9.56819 36033 ft 464 kts 318°
2026-05-04 19:10 46.86954 9.50936 36018 ft 465 kts 318°
2026-05-04 19:11 46.92012 9.45045 36007 ft 465 kts 318°
2026-05-04 19:11 46.97081 9.39133 36001 ft 465 kts 318°
2026-05-04 19:12 47.04058 9.31691 35992 ft 471 kts 328°
2026-05-04 19:13 47.10887 9.28013 35989 ft 478 kts 345°
2026-05-04 19:13 47.17414 9.26070 35986 ft 479 kts 345°
2026-05-04 19:14 47.22728 9.24448 35988 ft 479 kts 345°
2026-05-04 19:14 47.27518 9.22984 35982 ft 480 kts 345°
2026-05-04 19:15 47.32904 9.21339 35984 ft 480 kts 345°
2026-05-04 19:15 47.39758 9.19244 35984 ft 480 kts 345°
2026-05-04 19:16 47.46302 9.17237 35976 ft 480 kts 345°
2026-05-04 19:16 47.51745 9.15565 35976 ft 480 kts 345°
2026-05-04 19:17 47.58142 9.13595 35973 ft 481 kts 345°
2026-05-04 19:17 47.64668 9.11581 35982 ft 481 kts 345°
2026-05-04 19:18 47.70247 9.09854 35987 ft 481 kts 345°
2026-05-04 19:18 47.76597 9.07884 35970 ft 482 kts 345°
2026-05-04 19:19 47.83143 9.05848 35968 ft 482 kts 345°
2026-05-04 19:19 47.89714 9.03800 35977 ft 482 kts 345°
2026-05-04 19:20 47.96300 9.01741 35978 ft 483 kts 345°
2026-05-04 19:20 48.02833 8.99695 35982 ft 483 kts 345°
2026-05-04 19:21 48.09187 8.97699 35979 ft 484 kts 345°
2026-05-04 19:21 48.15847 8.96021 35979 ft 487 kts 353°
2026-05-04 19:22 48.22651 8.96257 35980 ft 491 kts
2026-05-04 19:22 48.29421 8.97299 35980 ft 492 kts
2026-05-04 19:23 48.35179 8.98150 35985 ft 492 kts
2026-05-04 19:23 48.42002 8.99180 35981 ft 493 kts
2026-05-04 19:24 48.48821 9.00220 35979 ft 493 kts
2026-05-04 19:24 48.55508 9.01241 35975 ft 493 kts
2026-05-04 19:25 48.62292 9.02281 35973 ft 493 kts
2026-05-04 19:25 48.68906 9.03819 35968 ft 494 kts
2026-05-04 19:26 48.75095 9.05294 35969 ft 494 kts
2026-05-04 19:26 48.81895 9.06914 35971 ft 494 kts
2026-05-04 19:27 48.88696 9.08510 35969 ft 494 kts
2026-05-04 19:27 48.95541 9.09464 35972 ft 493 kts
2026-05-04 19:28 49.02385 9.10445 35970 ft 494 kts
2026-05-04 19:28 49.09181 9.11417 35971 ft 494 kts
2026-05-04 19:29 49.16028 9.12396 35974 ft 494 kts
2026-05-04 19:29 49.22885 9.13378 35970 ft 494 kts
2026-05-04 19:30 49.29711 9.14617 35976 ft 496 kts 10°
2026-05-04 19:30 49.36027 9.16892 35966 ft 496 kts 11°
2026-05-04 19:30 49.39377 9.18076 35742 ft 493 kts 11°
2026-05-04 19:31 49.42722 9.19255 35216 ft 492 kts 11°
2026-05-04 19:31 49.46065 9.20437 34537 ft 493 kts 11°
2026-05-04 19:31 49.49218 9.21554 33823 ft 493 kts 11°
2026-05-04 19:31 49.52147 9.22595 33023 ft 495 kts 11°
2026-05-04 19:32 49.55471 9.23781 32084 ft 496 kts 11°
2026-05-04 19:32 49.58806 9.25264 31109 ft 500 kts 20°
2026-05-04 19:32 49.61901 9.27676 30439 ft 498 kts 32°
2026-05-04 19:32 49.64629 9.30927 29835 ft 494 kts 43°
2026-05-04 19:33 49.66889 9.34883 29210 ft 488 kts 55°
2026-05-04 19:33 49.68454 9.38916 28632 ft 482 kts 66°
2026-05-04 19:33 49.69648 9.43699 28011 ft 476 kts 73°
2026-05-04 19:33 49.70673 9.48523 27385 ft 471 kts 73°
2026-05-04 19:34 49.71689 9.53322 26768 ft 467 kts 74°
2026-05-04 19:34 49.72694 9.58069 26175 ft 463 kts 73°
2026-05-04 19:34 49.73687 9.62775 25601 ft 458 kts 73°
2026-05-04 19:34 49.74681 9.67427 25019 ft 454 kts 71°
2026-05-04 19:35 49.76072 9.71793 24412 ft 453 kts 58°
2026-05-04 19:35 49.78034 9.75579 23876 ft 449 kts 45°
2026-05-04 19:35 49.80465 9.78575 23268 ft 445 kts 31°
2026-05-04 19:35 49.83241 9.80619 22635 ft 438 kts 17°
2026-05-04 19:36 49.86192 9.81595 22014 ft 431 kts
2026-05-04 19:36 49.89157 9.81451 21375 ft 423 kts 348°
2026-05-04 19:36 49.91951 9.80200 20733 ft 414 kts 334°
2026-05-04 19:36 49.94381 9.77999 20107 ft 406 kts 321°
2026-05-04 19:37 49.96528 9.75136 19486 ft 400 kts 312°
2026-05-04 19:37 49.98306 9.71932 18861 ft 393 kts 303°
2026-05-04 19:37 49.99727 9.68343 18225 ft 387 kts 294°
2026-05-04 19:37 50.00704 9.64484 17531 ft 381 kts 284°
2026-05-04 19:38 50.01202 9.60483 16839 ft 374 kts 273°
2026-05-04 19:38 50.01167 9.56489 16161 ft 367 kts 261°
2026-05-04 19:38 50.00786 9.52604 15490 ft 362 kts 258°
2026-05-04 19:38 50.00350 9.48752 14827 ft 359 kts 258°
2026-05-04 19:39 49.99928 9.44952 14169 ft 355 kts 258°
2026-05-04 19:39 49.99532 9.41184 13510 ft 352 kts 259°
2026-05-04 19:39 49.99153 9.37440 12816 ft 348 kts 259°
2026-05-04 19:39 49.98787 9.33749 12112 ft 344 kts 259°
2026-05-04 19:40 49.98425 9.30092 11448 ft 341 kts 259°
2026-05-04 19:40 49.98066 9.26465 10779 ft 338 kts 259°
2026-05-04 19:40 49.97712 9.22887 10340 ft 328 kts 259°
2026-05-04 19:40 49.97436 9.20090 10196 ft 314 kts 259°
2026-05-04 19:41 49.97107 9.16765 10017 ft 296 kts 259°
2026-05-04 19:41 49.96817 9.13828 9885 ft 280 kts 259°
2026-05-04 19:41 49.96528 9.10929 9735 ft 263 kts 258°
2026-05-04 19:41 49.96257 9.08211 9583 ft 246 kts 258°
2026-05-04 19:42 49.95994 9.05622 9177 ft 241 kts 258°
2026-05-04 19:42 49.95730 9.03051 8679 ft 241 kts 258°
2026-05-04 19:42 49.95469 9.00491 8194 ft 240 kts 259°
2026-05-04 19:42 49.95482 8.98355 7753 ft 244 kts 279°
2026-05-04 19:43 49.96226 8.95900 7279 ft 248 kts 307°
2026-05-04 19:43 49.97583 8.94289 6824 ft 252 kts 335°
2026-05-04 19:43 49.99302 8.93809 6390 ft 254 kts
2026-05-04 19:43 50.00968 8.94610 5967 ft 251 kts 33°
2026-05-04 19:44 50.02174 8.96487 5565 ft 245 kts 61°
2026-05-04 19:44 50.02908 8.98638 5192 ft 243 kts 64°
2026-05-04 19:44 50.03687 9.00943 4836 ft 239 kts 64°
2026-05-04 19:44 50.04452 9.03234 4450 ft 237 kts 64°
2026-05-04 19:45 50.05199 9.05491 4203 ft 230 kts 64°
2026-05-04 19:45 50.05911 9.07773 4109 ft 238 kts 70°
2026-05-04 19:45 50.06066 9.10284 4014 ft 234 kts 101°
2026-05-04 19:45 50.05487 9.12638 4001 ft 235 kts 119°
2026-05-04 19:46 50.04374 9.14460 4007 ft 234 kts 150°
2026-05-04 19:46 50.02828 9.15158 4018 ft 234 kts 180°
2026-05-04 19:46 50.01271 9.14528 4017 ft 234 kts 211°
2026-05-04 19:46 50.00151 9.12741 4012 ft 234 kts 242°
2026-05-04 19:47 49.99792 9.10292 4010 ft 235 kts 274°
2026-05-04 19:47 50.00310 9.07908 4010 ft 236 kts 306°
2026-05-04 19:47 50.01542 9.06296 4012 ft 237 kts 337°
2026-05-04 19:47 50.03150 9.05887 4018 ft 236 kts
2026-05-04 19:48 50.04761 9.06034 4010 ft 237 kts
2026-05-04 19:48 50.06402 9.06184 4010 ft 236 kts
2026-05-04 19:48 50.08043 9.06336 4015 ft 236 kts
2026-05-04 19:48 50.09681 9.06394 4001 ft 235 kts 353°
2026-05-04 19:49 50.11206 9.05535 4013 ft 236 kts 326°
2026-05-04 19:49 50.12309 9.03700 4007 ft 228 kts 298°
2026-05-04 19:49 50.12802 9.01472 4009 ft 209 kts 283°
2026-05-04 19:49 50.13108 8.99349 3999 ft 193 kts 277°
2026-05-04 19:50 50.13091 8.97267 4016 ft 195 kts 260°
2026-05-04 19:50 50.12748 8.95237 4005 ft 192 kts 250°
2026-05-04 19:50 50.12287 8.93318 4005 ft 192 kts 248°
2026-05-04 19:50 50.11814 8.91367 4009 ft 192 kts 249°
2026-05-04 19:51 50.11496 8.90021 4005 ft 192 kts 249°
2026-05-04 19:51 50.11048 8.88141 4007 ft 192 kts 249°
2026-05-04 19:51 50.10598 8.86250 3993 ft 193 kts 249°
2026-05-04 19:51 50.10130 8.84290 3816 ft 193 kts 249°
2026-05-04 19:52 50.09662 8.82332 3558 ft 193 kts 249°
2026-05-04 19:52 50.09194 8.80370 3300 ft 193 kts 249°
2026-05-04 19:52 50.08726 8.78410 3042 ft 193 kts 250°
2026-05-04 19:52 50.08263 8.76470 2789 ft 187 kts 250°
2026-05-04 19:53 50.07811 8.74577 2535 ft 190 kts 250°
2026-05-04 19:53 50.07348 8.72637 2281 ft 188 kts 250°
2026-05-04 19:53 50.06909 8.70803 2028 ft 174 kts 251°
2026-05-04 19:53 50.06509 8.69128 1803 ft 157 kts 251°
2026-05-04 19:54 50.06160 8.67657 1633 ft 155 kts 251°
2026-05-04 19:54 50.05851 8.66364 1437 ft 147 kts 251°
2026-05-04 19:54 50.05500 8.64896 1259 ft 152 kts 251°
2026-05-04 19:54 50.05137 8.63378 1044 ft 146 kts 250°
2026-05-04 19:55 50.04767 8.61862 872 ft 149 kts 250°
2026-05-04 19:55 50.04402 8.60375 658 ft 148 kts 250°
2026-05-04 19:55 50.04057 8.58887 457 ft 146 kts 251°
2026-05-04 19:55 50.03707 8.57410 375 ft 137 kts 250°
2026-05-04 19:56 50.03435 8.56255 368 ft 89 kts 249°
2026-05-04 19:56 50.03269 8.55556 359 ft 50 kts 249°
2026-05-04 19:56 50.03179 8.55179 365 ft 35 kts 252°
2026-05-04 19:56 50.03183 8.54890 356 ft 26 kts 280°
2026-05-04 19:57 50.03228 8.54633 359 ft 17 kts 308°
2026-05-04 19:57 50.03241 8.54621 360 ft 0 kts 330°
2026-05-04 19:57 50.03259 8.54614 355 ft 13 kts 346°
2026-05-04 19:57 50.03305 8.54688 356 ft 10 kts 70°
2026-05-04 19:58 50.03331 8.54798 353 ft 11 kts 69°
2026-05-04 19:58 50.03362 8.54924 353 ft 14 kts 70°
2026-05-04 19:58 50.03403 8.55086 356 ft 18 kts 69°
2026-05-04 19:58 50.03453 8.55288 354 ft 21 kts 70°
2026-05-04 19:59 50.03503 8.55519 359 ft 23 kts 70°
2026-05-04 19:59 50.03560 8.55749 360 ft 23 kts 69°
2026-05-04 19:59 50.03617 8.55982 368 ft 23 kts 69°
2026-05-04 19:59 50.03656 8.56146 365 ft 25 kts 70°
2026-05-04 20:00 50.03738 8.56497 367 ft 28 kts 69°
2026-05-04 20:00 50.03809 8.56786 369 ft 30 kts 69°
2026-05-04 20:00 50.03885 8.57090 372 ft 30 kts 70°
2026-05-04 20:00 50.03954 8.57392 375 ft 30 kts 70°
2026-05-04 20:01 50.04029 8.57708 374 ft 32 kts 69°
2026-05-04 20:01 50.04052 8.57800 371 ft 1 kts 69°
2026-05-04 20:01 50.04061 8.57839 369 ft 6 kts 69°
2026-05-04 20:01 50.04083 8.57931 374 ft 11 kts 70°
2026-05-04 20:02 50.04103 8.58015 373 ft 13 kts 70°
2026-05-04 20:02 50.04153 8.58136 376 ft 14 kts 38°
2026-05-04 20:02 50.04318 8.58185 374 ft 32 kts 336°
2026-05-04 20:02 50.04494 8.58083 377 ft 25 kts 340°
2026-05-04 20:03 50.04597 8.58023 378 ft 0 kts 339°
2026-05-04 20:06 50.04598 8.58023 378 ft 1 kts 339°
2026-05-04 20:06 50.04676 8.57977 379 ft 21 kts 339°
2026-05-04 20:06 50.04747 8.57942 377 ft 1 kts 348°
2026-05-04 20:07 50.04767 8.57945 377 ft 6 kts
2026-05-04 20:07 50.04799 8.57994 378 ft 7 kts 61°
2026-05-04 20:07 50.04820 8.58063 378 ft 7 kts 69°
2026-05-04 20:07 50.04839 8.58146 378 ft 9 kts 70°
2026-05-04 20:08 50.04862 8.58245 378 ft 11 kts 70°
2026-05-04 20:08 50.04890 8.58363 378 ft 12 kts 70°
2026-05-04 20:08 50.04917 8.58479 378 ft 11 kts 70°
2026-05-04 20:08 50.04946 8.58606 377 ft 13 kts 70°
2026-05-04 20:09 50.04980 8.58739 378 ft 8 kts 64°
2026-05-04 20:09 50.04991 8.58769 378 ft 0 kts 57°
2026-05-04 20:09 50.05007 8.58782 379 ft 6 kts 33°
2026-05-04 20:09 50.05056 8.58753 379 ft 11 kts 336°
2026-05-04 20:10 50.05070 8.58744 379 ft 0 kts 338°